星链-35860(STARLINK-35860)

导读

STARLINK-35860是美国SpaceX星链星座的成员卫星,于2025年12月4日发射入轨。星链项目旨在构建全球卫星互联网通信系统,为全球偏远地区、海洋上空等传统网络覆盖盲区提供低成本、低延迟的宽带互联网服务,这颗卫星进一步扩充了星链低轨星座的规模,助力提升星座全球覆盖密度与服务容量,推动SpaceX全球互联目标落地。

Basic Information
目录编号:
66881
目录名称:
STARLINK-35860
国际标识:
2025-283D
轨道中心:
EARTH
卫星名称:
星链-35860
卫星全名:
星链-35860(STARLINK-35860)
卫星状态:
在轨 (已飞行191 天)
发射日期:
2025-12-04 UTC
国别 :
美国 (US)
星等 :
--
Orbit Information
数据来源 国际轨道数据 AOE轨道数据
星历时间 2026-06-12T10:29:52+0800
1天前
查看轨道信息
2026-06-07T08:00:00+0800
6天前
查看轨道信息
半长轴 6853.316km 6853.262km
偏心率 0.0001343 0.0001149
轨道倾角 53.160° 53.159°
近地点辐角 93.642° 77.890°
升交点赤经 305.320° 329.030°
平近点角 266.474° 229.794°
近地点 474.258km 474.337km
远地点 476.1km 475.913km
周期 94.105分钟 94.103分钟
每日圈数 15.302124 15.302303
Detailed Information
固有亮度:
5
最大亮度:
2.5
卫星平台:
Starlink V1.0
覆盖范围:
全球
运营商:
太空探索技术公司
运营商所在国:
美国
制造商(研发单位):
太空探索技术公司
制造商所在国:
美国
使用方式:
暂无
Satellite Introduction
Starlink 计划是 SpaceX 推出的全球卫星互联网项目,通过发射低轨道卫星,为全球尤其是偏远地区提供高速、低延迟的互联网服务。自 2019 年起,Starlink 已部署数千颗卫星,旨在缩小全球数字鸿沟,推动互联网普及。该项目还为军事、航空等行业提供通信支持,带来广泛经济效益。
2D Orbit Map
3D Orbit Map
Orbit Altitude Analysis Chart
Orbit Inclination Analysis Chart
Orbit Comprehensive Analysis Chart
View Comprehensive Chart